Location: Ballingbuur
(53.0000°N, 5.7667°E)
Time: 05:41:15
(UTC+00:00)

CORIOLIS - Pass Details

Date: 29 November 2020
Orbit: 817 x 839 km, 98.7° (Epoch: 23 January)

Event Time Altitude Azimuth Distance (km) Brightness Sun altitude
Rises 06:33:52 0° 15° (NNE) 3,408 7.2 -7.4°
Reaches altitude 10° 06:36:15 10° 14° (NNE) 2,469 6.5 -7.1°
Maximum altitude 06:41:44 80° 289° (WNW) 857 4.2 -6.3°
Drops below altitude 10° 06:47:10 10° 203° (SSW) 2,446 6.7 -5.6°
Sets 06:49:30 0° 202° (SSW) 3,374 7.4 -5.3°
